| time (UTC) | temp F | wind direction | speed MPH | gust MPH | rain 1hr in | rain 24hr in | rain mn in | humidity % | barometer mb |
| 20260504050456 | 67 | 161 | 2.0 | 6.0 | 0.00 | 0.00 | 0.00 | 68 | 1017.9 |
| 20260504050201 | 67 | 161 | 2.0 | 5.0 | 0.00 | 0.00 | 0.00 | 68 | 1017.8 |
| 20260504045427 | 67 | 161 | 1.0 | 5.0 | 0.00 | 0.00 | 0.00 | 68 | 1017.9 |
| 20260504044901 | 67 | 161 | 1.0 | 5.0 | 0.00 | 0.00 | 0.00 | 67 | 1018.0 |
| 20260504044334 | 67 | 161 | 2.0 | 5.0 | 0.00 | 0.00 | 0.00 | 67 | 1017.9 |
| 20260504043832 | 67 | 161 | 2.0 | 4.0 | 0.00 | 0.00 | 0.00 | 67 | 1018.0 |
| 20260504043305 | 67 | 161 | 2.0 | 6.0 | 0.00 | 0.00 | 0.00 | 67 | 1018.0 |
| 20260504042800 | 67 | 161 | 2.0 | 6.0 | 0.00 | 0.00 | 0.00 | 67 | 1018.0 |
| 20260504042258 | 68 | 156 | 1.0 | 5.0 | 0.00 | 0.00 | 0.00 | 67 | 1018.2 |
| 20260504041731 | 68 | 155 | 1.0 | 5.0 | 0.00 | 0.00 | 0.00 | 67 | 1018.1 |
| 20260504041221 | 68 | 155 | 1.0 | 5.0 | 0.00 | 0.00 | 0.00 | 66 | 1018.1 |
| 20260504040718 | 68 | 155 | 1.0 | 3.0 | 0.00 | 0.00 | 0.00 | 66 | 1018.0 |
| 20260504040446 | 68 | 155 | 1.0 | 5.0 | 0.00 | 0.00 | 0.00 | 66 | 1018.0 |
| 20260504035710 | 68 | 155 | 3.0 | 6.0 | 0.00 | 0.00 | 0.00 | 65 | 1018.1 |
| 20260504035213 | 69 | 155 | 3.0 | 6.0 | 0.00 | 0.00 | 0.00 | 65 | 1018.0 |
| 20260504034639 | 69 | 167 | 2.0 | 7.0 | 0.00 | 0.00 | 0.00 | 65 | 1018.1 |
| 20260504034137 | 69 | 143 | 2.0 | 7.0 | 0.00 | 0.00 | 0.00 | 65 | 1018.2 |
| 20260504033612 | 69 | 161 | 2.0 | 5.0 | 0.00 | 0.00 | 0.00 | 65 | 1018.1 |
| 20260504033314 | 69 | 161 | 4.0 | 9.0 | 0.00 | 0.00 | 0.00 | 65 | 1018.1 |
| 20260504032812 | 69 | 154 | 4.0 | 10.0 | 0.00 | 0.00 | 0.00 | 64 | 1018.1 |
| 20260504032016 | 69 | 106 | 4.0 | 10.0 | 0.00 | 0.00 | 0.00 | 64 | 1018.0 |
| 20260504031718 | 69 | 168 | 3.0 | 10.0 | 0.00 | 0.00 | 0.00 | 64 | 1018.0 |
| 20260504031219 | 69 | 144 | 4.0 | 10.0 | 0.00 | 0.00 | 0.00 | 64 | 1018.0 |
| 20260504030419 | 69 | 142 | 4.0 | 9.0 | 0.00 | 0.00 | 0.00 | 63 | 1017.8 |
| 20260504025853 | 70 | 149 | 4.0 | 9.0 | 0.00 | 0.00 | 0.00 | 63 | 1017.8 |
| 20260504025350 | 70 | 137 | 3.0 | 9.0 | 0.00 | 0.00 | 0.00 | 63 | 1017.8 |
| 20260504024824 | 70 | 141 | 4.0 | 9.0 | 0.00 | 0.00 | 0.00 | 63 | 1017.8 |
| 20260504024256 | 70 | 144 | 4.0 | 10.0 | 0.00 | 0.00 | 0.00 | 63 | 1017.9 |
| 20260504024024 | 70 | 134 | 4.0 | 10.0 | 0.00 | 0.00 | 0.00 | 62 | 1017.9 |
| 20260504023228 | 70 | 162 | 4.0 | 9.0 | 0.00 | 0.00 | 0.00 | 62 | 1017.9 |
| 20260504022931 | 71 | 160 | 5.0 | 10.0 | 0.00 | 0.00 | 0.00 | 62 | 1017.9 |
| 20260504022157 | 71 | 133 | 5.0 | 10.0 | 0.00 | 0.00 | 0.00 | 62 | 1017.8 |
| 20260504021631 | 71 | 174 | 5.0 | 10.0 | 0.00 | 0.00 | 0.00 | 61 | 1017.8 |
| 20260504021336 | 71 | 147 | 5.0 | 10.0 | 0.00 | 0.00 | 0.00 | 60 | 1017.7 |
| 20260504020602 | 71 | 120 | 5.0 | 12.0 | 0.00 | 0.00 | 0.00 | 60 | 1017.7 |
| 20260504020035 | 71 | 147 | 6.0 | 12.0 | 0.00 | 0.00 | 0.00 | 60 | 1017.7 |
| 20260504015511 | 72 | 150 | 5.0 | 12.0 | 0.00 | 0.00 | 0.00 | 59 | 1017.7 |
| 20260504015012 | 72 | 73 | 5.0 | 12.0 | 0.00 | 0.00 | 0.00 | 59 | 1017.7 |
| 20260504014446 | 72 | 129 | 5.0 | 11.0 | 0.00 | 0.00 | 0.00 | 58 | 1017.7 |
| 20260504013919 | 72 | 177 | 5.0 | 12.0 | 0.00 | 0.00 | 0.00 | 58 | 1017.7 |
| 20260504013355 | 72 | 126 | 6.0 | 12.0 | 0.00 | 0.00 | 0.00 | 57 | 1017.6 |
| 20260504013336 | 73 | 133 | 6.0 | 11.0 | 0.00 | 0.00 | 0.00 | 56 | 1017.5 |
| 20260504012327 | 73 | 156 | 5.0 | 11.0 | 0.00 | 0.00 | 0.00 | 56 | 1017.5 |
| 20260504011827 | 73 | 125 | 4.0 | 10.0 | 0.00 | 0.00 | 0.00 | 56 | 1017.4 |
| 20260504011324 | 73 | 162 | 5.0 | 12.0 | 0.00 | 0.00 | 0.00 | 55 | 1017.4 |
| 20260504010826 | 73 | 206 | 6.0 | 15.0 | 0.00 | 0.00 | 0.00 | 55 | 1017.4 |
| 20260504010306 | 73 | 143 | 6.0 | 15.0 | 0.00 | 0.00 | 0.00 | 55 | 1017.4 |
| 20260504005750 | 74 | 143 | 5.0 | 13.0 | 0.00 | 0.00 | 0.00 | 55 | 1017.3 |
| 20260504005459 | 74 | 164 | 4.0 | 10.0 | 0.00 | 0.00 | 0.00 | 54 | 1017.4 |
| 20260504004703 | 74 | 143 | 5.0 | 10.0 | 0.00 | 0.00 | 0.00 | 54 | 1017.4 |
| 20260504004139 | 74 | 156 | 4.0 | 10.0 | 0.00 | 0.00 | 0.00 | 53 | 1017.4 |
| 20260504003909 | 75 | 179 | 5.0 | 11.0 | 0.00 | 0.00 | 0.00 | 53 | 1017.4 |
| 20260504003134 | 75 | 131 | 5.0 | 11.0 | 0.00 | 0.00 | 0.00 | 53 | 1017.3 |
| 20260504002617 | 75 | 139 | 5.0 | 11.0 | 0.00 | 0.00 | 0.00 | 52 | 1017.4 |
| 20260504002055 | 76 | 132 | 5.0 | 11.0 | 0.00 | 0.00 | 0.00 | 51 | 1017.4 |
| 20260504001556 | 77 | 156 | 4.0 | 10.0 | 0.00 | 0.00 | 0.00 | 50 | 1017.3 |
| 20260504001040 | 77 | 150 | 5.0 | 12.0 | 0.00 | 0.00 | 0.00 | 50 | 1017.3 |
| 20260504000534 | 77 | 164 | 6.0 | 12.0 | 0.00 | 0.00 | 0.00 | 49 | 1017.4 |
| 20260504000033 | 77 | 147 | 6.0 | 14.0 | 0.00 | 0.00 | 0.00 | 49 | 1017.5 |
| 20260503235508 | 78 | 204 | 5.0 | 14.0 | 0.00 | 0.00 | 0.00 | 49 | 1017.5 |
| 20260503234949 | 78 | 123 | 6.0 | 12.0 | 0.00 | 0.00 | 0.00 | 48 | 1017.3 |
| 20260503234416 | 78 | 143 | 6.0 | 13.0 | 0.00 | 0.00 | 0.00 | 47 | 1017.4 |
| 20260503233850 | 79 | 158 | 5.0 | 9.0 | 0.00 | 0.00 | 0.00 | 46 | 1017.5 |
| 20260503233348 | 79 | 136 | 6.0 | 14.0 | 0.00 | 0.00 | 0.00 | 46 | 1017.6 |
| 20260503232842 | 79 | 162 | 5.0 | 14.0 | 0.00 | 0.00 | 0.00 | 45 | 1017.6 |
| 20260503232546 | 80 | 202 | 4.0 | 11.0 | 0.00 | 0.00 | 0.00 | 45 | 1017.7 |
| 20260503231750 | 80 | 121 | 4.0 | 10.0 | 0.00 | 0.00 | 0.00 | 43 | 1017.6 |
| 20260503231224 | 80 | 130 | 4.0 | 11.0 | 0.00 | 0.00 | 0.00 | 42 | 1017.5 |
| 20260503230658 | 80 | 127 | 5.0 | 12.0 | 0.00 | 0.00 | 0.00 | 43 | 1017.5 |
| 20260503230131 | 80 | 170 | 4.0 | 12.0 | 0.00 | 0.00 | 0.00 | 43 | 1017.6 |
| 20260503225629 | 80 | 139 | 3.0 | 10.0 | 0.00 | 0.00 | 0.00 | 42 | 1017.7 |
| 20260503225103 | 80 | 142 | 3.0 | 8.0 | 0.00 | 0.00 | 0.00 | 41 | 1017.7 |
| 20260503224537 | 80 | 156 | 4.0 | 9.0 | 0.00 | 0.00 | 0.00 | 42 | 1017.8 |
| 20260503224009 | 80 | 97 | 4.0 | 10.0 | 0.00 | 0.00 | 0.00 | 42 | 1017.8 |
| 20260503223737 | 80 | 131 | 4.0 | 10.0 | 0.00 | 0.00 | 0.00 | 42 | 1017.9 |
| 20260503222940 | 81 | 165 | 4.0 | 10.0 | 0.00 | 0.00 | 0.00 | 43 | 1017.8 |
| 20260503222429 | 81 | 123 | 4.0 | 10.0 | 0.00 | 0.00 | 0.00 | 41 | 1018.1 |
| 20260503221926 | 81 | 128 | 3.0 | 9.0 | 0.00 | 0.00 | 0.00 | 42 | 1018.2 |
| 20260503221401 | 81 | 150 | 5.0 | 10.0 | 0.00 | 0.00 | 0.00 | 41 | 1018.3 |
| 20260503220855 | 81 | 163 | 5.0 | 14.0 | 0.00 | 0.00 | 0.00 | 41 | 1018.1 |
| 20260503220352 | 81 | 162 | 5.0 | 14.0 | 0.00 | 0.00 | 0.00 | 41 | 1018.1 |
| 20260503215825 | 82 | 92 | 3.0 | 9.0 | 0.00 | 0.00 | 0.00 | 41 | 1018.1 |
| 20260503215301 | 83 | 134 | 3.0 | 8.0 | 0.00 | 0.00 | 0.00 | 41 | 1018.1 |
| 20260503214733 | 82 | 99 | 5.0 | 10.0 | 0.00 | 0.00 | 0.00 | 39 | 1018.1 |
| 20260503214233 | 82 | 128 | 4.0 | 10.0 | 0.00 | 0.00 | 0.00 | 39 | 1018.3 |
| 20260503213703 | 82 | 74 | 4.0 | 9.0 | 0.00 | 0.00 | 0.00 | 40 | 1018.5 |
| 20260503213200 | 83 | 104 | 3.0 | 8.0 | 0.00 | 0.00 | 0.00 | 39 | 1018.5 |
| 20260503212913 | 82 | 100 | 4.0 | 10.0 | 0.00 | 0.00 | 0.00 | 39 | 1018.6 |
| 20260503212416 | 82 | 106 | 3.0 | 10.0 | 0.00 | 0.00 | 0.00 | 41 | 1018.7 |
| 20260503212127 | 81 | 145 | 3.0 | 9.0 | 0.00 | 0.00 | 0.00 | 41 | 1018.8 |
| 20260503211103 | 82 | 166 | 3.0 | 10.0 | 0.00 | 0.00 | 0.00 | 40 | 1018.8 |
| 20260503210600 | 82 | 49 | 4.0 | 10.0 | 0.00 | 0.00 | 0.00 | 41 | 1018.8 |
| 20260503210031 | 81 | 66 | 6.0 | 10.0 | 0.00 | 0.00 | 0.00 | 41 | 1018.8 |
| 20260503205528 | 82 | 95 | 5.0 | 13.0 | 0.00 | 0.00 | 0.00 | 40 | 1018.9 |
| 20260503205002 | 82 | 58 | 3.0 | 13.0 | 0.00 | 0.00 | 0.00 | 40 | 1019.0 |
| 20260503204435 | 82 | 158 | 3.0 | 8.0 | 0.00 | 0.00 | 0.00 | 39 | 1019.1 |
| 20260503203932 | 82 | 145 | 4.0 | 8.0 | 0.00 | 0.00 | 0.00 | 39 | 1019.2 |
| 20260503203406 | 82 | 143 | 4.0 | 10.0 | 0.00 | 0.00 | 0.00 | 39 | 1019.2 |
| 20260503202855 | 83 | 143 | 4.0 | 9.0 | 0.00 | 0.00 | 0.00 | 39 | 1019.3 |
| 20260503202352 | 83 | 65 | 3.0 | 11.0 | 0.00 | 0.00 | 0.00 | 39 | 1019.5 |
| 20260503201825 | 83 | 100 | 3.0 | 11.0 | 0.00 | 0.00 | 0.00 | 39 | 1019.5 |
| 20260503201322 | 83 | 117 | 4.0 | 11.0 | 0.00 | 0.00 | 0.00 | 41 | 1019.6 |
| 20260503200819 | 83 | 152 | 5.0 | 13.0 | 0.00 | 0.00 | 0.00 | 39 | 1019.7 |
| 20260503200316 | 83 | 123 | 4.0 | 13.0 | 0.00 | 0.00 | 0.00 | 38 | 1019.8 |
| 20260503195751 | 83 | 100 | 3.0 | 10.0 | 0.00 | 0.00 | 0.00 | 39 | 1019.9 |
| 20260503195255 | 82 | 22 | 3.0 | 9.0 | 0.00 | 0.00 | 0.00 | 39 | 1019.9 |
| 20260503194728 | 81 | 60 | 6.0 | 14.0 | 0.00 | 0.00 | 0.00 | 40 | 1020.0 |
| 20260503194205 | 81 | 41 | 5.0 | 14.0 | 0.00 | 0.00 | 0.00 | 40 | 1020.1 |
| 20260503193701 | 81 | 99 | 3.0 | 10.0 | 0.00 | 0.00 | 0.00 | 42 | 1020.2 |
| 20260503193202 | 81 | 207 | 4.0 | 9.0 | 0.00 | 0.00 | 0.00 | 40 | 1020.1 |
| 20260503192642 | 81 | 226 | 6.0 | 11.0 | 0.00 | 0.00 | 0.00 | 40 | 1020.3 |
| 20260503192121 | 82 | 129 | 6.0 | 12.0 | 0.00 | 0.00 | 0.00 | 40 | 1020.4 |
| 20260503191621 | 82 | 155 | 5.0 | 12.0 | 0.00 | 0.00 | 0.00 | 39 | 1020.5 |
| 20260503191059 | 82 | 140 | 3.0 | 9.0 | 0.00 | 0.00 | 0.00 | 40 | 1020.5 |
| 20260503190815 | 81 | 156 | 3.0 | 9.0 | 0.00 | 0.00 | 0.00 | 42 | 1020.6 |
| 20260503190029 | 82 | 179 | 4.0 | 11.0 | 0.00 | 0.00 | 0.00 | 39 | 1020.7 |
| 20260503190021 | 81 | 231 | 4.0 | 9.0 | 0.00 | 0.00 | 0.00 | 39 | 1020.7 |
| 20260503185912 | 82 | 112 | 4.0 | 9.0 | 0.00 | 0.00 | 0.00 | 41 | 1020.9 |
| 20260503185754 | 83 | 62 | 4.0 | 9.0 | 0.00 | 0.00 | 0.00 | 39 | 1020.8 |
| 20260503185445 | 83 | 133 | 3.0 | 11.0 | 0.00 | 0.00 | 0.00 | 39 | 1020.8 |
| 20260503185226 | 82 | 113 | 4.0 | 9.0 | 0.00 | 0.00 | 0.00 | 41 | 1020.9 |
| 20260503183508 | 82 | 112 | 4.0 | 9.0 | 0.00 | 0.00 | 0.00 | 41 | 1020.9 |
| 20260503182943 | 82 | 62 | 4.0 | 11.0 | 0.00 | 0.00 | 0.00 | 39 | 1021.1 |
| 20260503182423 | 82 | 122 | 3.0 | 10.0 | 0.00 | 0.00 | 0.00 | 40 | 1021.1 |
| 20260503181920 | 82 | 92 | 2.0 | 9.0 | 0.00 | 0.00 | 0.00 | 40 | 1021.2 |
| 20260503181633 | 82 | 69 | 2.0 | 9.0 | 0.00 | 0.00 | 0.00 | 40 | 1021.3 |
| 20260503180902 | 81 | 116 | 4.0 | 9.0 | 0.00 | 0.00 | 0.00 | 40 | 1021.4 |
| 20260503180609 | 81 | 109 | 4.0 | 9.0 | 0.00 | 0.00 | 0.00 | 42 | 1021.4 |
| 20260503175814 | 81 | 88 | 5.0 | 10.0 | 0.00 | 0.00 | 0.00 | 41 | 1021.6 |
| 20260503175247 | 81 | 129 | 4.0 | 10.0 | 0.00 | 0.00 | 0.00 | 41 | 1021.7 |
| 20260503174744 | 80 | 73 | 3.0 | 6.0 | 0.00 | 0.00 | 0.00 | 42 | 1021.8 |
| 20260503174458 | 81 | 346 | 4.0 | 10.0 | 0.00 | 0.00 | 0.00 | 41 | 1021.9 |
| 20260503173651 | 81 | 120 | 3.0 | 10.0 | 0.00 | 0.00 | 0.00 | 43 | 1022.0 |
| 20260503173124 | 81 | 104 | 2.0 | 8.0 | 0.00 | 0.00 | 0.00 | 42 | 1022.1 |
| 20260503172621 | 81 | 74 | 3.0 | 8.0 | 0.00 | 0.00 | 0.00 | 41 | 1022.2 |
| 20260503172326 | 80 | 14 | 4.0 | 10.0 | 0.00 | 0.00 | 0.00 | 44 | 1022.4 |
| 20260503171531 | 79 | 66 | 4.0 | 10.0 | 0.00 | 0.00 | 0.00 | 44 | 1022.5 |
| 20260503171002 | 79 | 172 | 5.0 | 10.0 | 0.00 | 0.00 | 0.00 | 42 | 1022.4 |
| 20260503170500 | 80 | 160 | 3.0 | 10.0 | 0.00 | 0.00 | 0.00 | 42 | 1022.4 |
| 20260503160206 | 79 | 54 | 3.0 | 8.0 | 0.00 | 0.00 | 0.00 | 45 | 1022.5 |
| 20260503150909 | 76 | 200 | 3.0 | 8.0 | 0.00 | 0.00 | 0.00 | 52 | 1022.4 |
| 20260503150343 | 76 | 75 | 3.0 | 8.0 | 0.00 | 0.00 | 0.00 | 56 | 1022.3 |
| 20260503140122 | 71 | 41 | 0.0 | 2.0 | 0.00 | 0.00 | 0.00 | 72 | 1022.1 |
| 20260503131231 | 64 | 31 | 0.0 | 0.0 | 0.00 | 0.00 | 0.00 | 90 | 1021.8 |
| 20260503130435 | 63 | 31 | 0.0 | 0.0 | 0.00 | 0.00 | 0.00 | 92 | 1021.8 |
| 20260503120204 | 56 | 31 | 0.0 | 0.0 | 0.00 | 0.00 | 0.00 | 97 | 1021.3 |
| 20260503110545 | 56 | 31 | 0.0 | 0.0 | 0.00 | 0.00 | 0.00 | 96 | 1020.9 |
| 20260503100248 | 57 | 31 | 0.0 | 0.0 | 0.00 | 0.00 | 0.00 | 95 | 1020.4 |
| 20260503090346 | 58 | 31 | 0.0 | 0.0 | 0.00 | 0.00 | 0.00 | 94 | 1020.2 |
| 20260503081119 | 58 | 31 | 0.0 | 0.0 | 0.00 | 0.00 | 0.00 | 92 | 1020.5 |
| 20260503080616 | 58 | 31 | 0.0 | 0.0 | 0.00 | 0.00 | 0.00 | 92 | 1020.5 |
| 20260503072909 | 59 | 31 | 0.0 | 0.0 | 0.00 | 0.00 | 0.00 | 90 | 1020.3 |
| 20260503072408 | 59 | 31 | 0.0 | 1.0 | 0.00 | 0.00 | 0.00 | 90 | 1020.3 |
| 20260503071908 | 59 | 31 | 0.0 | 1.0 | 0.00 | 0.00 | 0.00 | 90 | 1020.3 |
| 20260503071626 | 59 | 31 | 0.0 | 0.0 | 0.00 | 0.00 | 0.00 | 89 | 1020.4 |
| 20260503070853 | 59 | 31 | 0.0 | 0.0 | 0.00 | 0.00 | 0.00 | 89 | 1020.4 |
| 20260503055110 | 62 | 31 | 0.0 | 1.0 | 0.00 | 0.00 | 0.00 | 83 | 1020.6 |
| 20260503054609 | 62 | 31 | 0.0 | 1.0 | 0.00 | 0.00 | 0.00 | 83 | 1020.5 |
| 20260503054043 | 62 | 31 | 0.0 | 1.0 | 0.00 | 0.00 | 0.00 | 82 | 1020.4 |
| 20260503053516 | 62 | 31 | 0.0 | 1.0 | 0.00 | 0.00 | 0.00 | 82 | 1020.3 |
| 20260503053014 | 62 | 31 | 0.0 | 1.0 | 0.00 | 0.00 | 0.00 | 82 | 1020.2 |
| 20260503052511 | 62 | 31 | 0.0 | 0.0 | 0.00 | 0.00 | 0.00 | 82 | 1020.2 |
| 20260503052008 | 62 | 31 | 0.0 | 0.0 | 0.00 | 0.00 | 0.00 | 81 | 1020.3 |
| 20260503051505 | 62 | 31 | 0.0 | 0.0 | 0.00 | 0.00 | 0.00 | 81 | 1020.3 |